Paducah, KY

3:59 PM CDT on August 22, 2017 (GMT -0500)
Barkley Regional

Weather History for KPAH - March, 2014

Change the Weather History Date:

Saturday, March 8, 2014

  Actual Average Record
Temperature  
Mean Temperature 42 °F 46 °F  
Max Temperature 53 °F 56 °F 79 °F (1974)
Min Temperature 31 °F 36 °F 10 °F (1943)
Degree Days  
Heating Degree Days 23 19  
Month to date heating degree days 247 163  
Since 1 July heating degree days 3902 3459  
Cooling Degree Days 0 0  
Month to date cooling degree days 0 0  
Year to date cooling degree days 0 0  
Moisture  
Dew Point 37 °F    
Average Humidity 76    
Maximum Humidity 86    
Minimum Humidity 66    
Precipitation  
Precipitation T in 0.12 in 2.73 in (1964)
Month to date precipitation 1.57 0.94  
Year to date precipitation 6.75 8.53  
Snow  
Snow 0.00 in 0.00 in 4.20 in (1994)
Month to date snowfall 5.4 0.3  
Since 1 July snowfall 18.3 8.8  
Snow Depth 0.00 in    
Sea Level Pressure  
Sea Level Pressure 30.14 in    
Wind  
Wind Speed 7 mph (WNW)    
Max Wind Speed 15 mph    
Max Gust Speed 19 mph    
Visibility 4 miles    
Events      
T = Trace of Precipitation, MM = Missing Value Source: NWS Daily Summary

Daily Weather History Graph

Daily Weather History Graph

Search for Another Location

Airport or City:

Trip Planner

Search our weather history database for the weather conditions in past years. The results will help you decide how hot, cold, wet, or windy it might be!

Date:

Astronomy

Mar. 08, 2014 Rise Set
Actual Time 6:16 AM CST 5:55 PM CST
Civil Twilight 5:50 AM CST 6:21 PM CST
Nautical Twilight 5:20 AM CST 6:52 PM CST
Astronomical Twilight 4:50 AM CST 7:22 PM CST
Moon 11:05 AM CST (3/8) 12:45 AM CST (3/8)
Length of Visible Light 12h 31m
Length of Day
11h 39m
First Quarter, 52% of the Moon is Illuminated
Mar 8
First Quarter
Mar 16
Full
Mar 23
Last Quarter
Mar 30
New
Apr 7
First Quarter

Hourly Weather History & Observations

Time (CST) Temp. Windchill Dew Point Humidity Pressure Visibility Wind Dir Wind Speed Gust Speed Precip Events Conditions
12:53 AM 34.0 °F 31.0 °F 28.0 °F 79% 30.03 in 6.0 mi WSW 3.5 mph - N/A   Haze
1:53 AM 33.1 °F - 28.0 °F 82% 30.03 in 5.0 mi Calm Calm - N/A   Haze
2:53 AM 32.0 °F - 28.0 °F 85% 30.04 in 5.0 mi Calm Calm - N/A   Clear
3:53 AM 37.0 °F 33.3 °F 28.9 °F 73% 30.04 in 7.0 mi SSW 4.6 mph - N/A   Clear
4:53 AM 37.9 °F 35.5 °F 30.9 °F 76% 30.06 in 7.0 mi SW 3.5 mph - N/A   Clear
5:53 AM 39.0 °F - 30.9 °F 73% 30.06 in 7.0 mi Calm Calm - N/A   Clear
6:53 AM 39.9 °F 36.7 °F 32.0 °F 73% 30.06 in 5.0 mi Variable 4.6 mph - N/A   Haze
7:53 AM 42.1 °F 39.2 °F 35.1 °F 76% 30.08 in 5.0 mi SSW 4.6 mph - N/A   Haze
8:53 AM 45.0 °F 39.3 °F 39.0 °F 80% 30.09 in 5.0 mi SW 11.5 mph - N/A   Haze
9:14 AM 46.9 °F - 39.9 °F 77% 30.09 in 5.0 mi WSW 9.2 mph - N/A   Haze
9:23 AM 48.0 °F - 39.9 °F 74% 30.10 in 5.0 mi West 9.2 mph - N/A   Haze
9:38 AM 46.9 °F - 39.9 °F 77% 30.10 in 4.0 mi SW 6.9 mph - N/A   Haze
9:49 AM 48.2 °F - 39.2 °F 71% 30.10 in 5.0 mi WSW 8.1 mph - N/A   Haze
9:53 AM 48.0 °F - 39.9 °F 74% 30.11 in 5.0 mi WSW 8.1 mph - N/A   Haze
10:36 AM 48.9 °F - 42.1 °F 77% 30.13 in 5.0 mi West 11.5 mph - N/A   Haze
10:51 AM 48.2 °F - 42.8 °F 82% 30.12 in 5.0 mi WSW 10.4 mph - N/A   Haze
10:53 AM 48.0 °F - 42.1 °F 80% 30.13 in 5.0 mi West 11.5 mph - N/A   Haze
11:40 AM 48.0 °F - 43.0 °F 83% 30.12 in 4.0 mi WSW 11.5 mph - N/A   Haze
11:53 AM 46.9 °F - 42.1 °F 83% 30.12 in 4.0 mi WSW 12.7 mph - N/A   Haze
12:53 PM 50.0 °F - 42.1 °F 74% 30.10 in 7.0 mi WSW 9.2 mph - N/A   Clear
1:53 PM 53.1 °F - 42.1 °F 66% 30.11 in 8.0 mi West 5.8 mph - N/A   Clear
2:53 PM 52.0 °F - 42.1 °F 69% 30.11 in 7.0 mi West 5.8 mph - N/A   Mostly Cloudy
3:53 PM 51.1 °F - 41.0 °F 68% 30.12 in 7.0 mi West 9.2 mph - N/A   Mostly Cloudy
4:17 PM 48.9 °F - 39.0 °F 69% 30.13 in 4.0 mi NNW 11.5 mph - N/A   Haze
4:42 PM 48.0 °F - 37.9 °F 68% 30.14 in 3.0 mi NW 10.4 mph - N/A   Haze
4:53 PM 48.0 °F - 37.0 °F 66% 30.15 in 3.0 mi NNW 11.5 mph - N/A   Haze
5:31 PM 46.0 °F 41.4 °F 37.0 °F 71% 30.17 in 2.5 mi NNW 9.2 mph - N/A   Haze
5:53 PM 45.0 °F 40.6 °F 37.0 °F 74% 30.18 in 2.5 mi NNW 8.1 mph - N/A   Haze
6:07 PM 45.0 °F 39.7 °F 37.0 °F 74% 30.19 in 3.0 mi NNW 10.4 mph - N/A   Haze
6:53 PM 44.1 °F 38.6 °F 37.0 °F 76% 30.20 in 3.0 mi NNW 10.4 mph - N/A   Haze
7:34 PM 43.0 °F 36.8 °F 37.0 °F 80% 30.21 in 3.0 mi NNW 11.5 mph 17.3 mph N/A   Haze
7:44 PM 43.0 °F 36.4 °F 37.0 °F 80% 30.22 in 3.0 mi NNW 12.7 mph - N/A   Haze
7:53 PM 43.0 °F 36.4 °F 37.0 °F 80% 30.22 in 2.5 mi North 12.7 mph - N/A   Haze
8:53 PM 42.1 °F 37.1 °F 37.0 °F 82% 30.23 in 2.5 mi North 8.1 mph - 0.00 in   Haze
9:39 PM 41.0 °F 34.3 °F 36.0 °F 82% 30.24 in 2.5 mi North 11.5 mph - N/A   Haze
9:53 PM 41.0 °F 34.3 °F 35.1 °F 79% 30.25 in 2.5 mi North 11.5 mph - N/A   Haze
10:04 PM 41.0 °F 34.7 °F 35.1 °F 79% 30.25 in 3.0 mi North 10.4 mph - N/A   Haze
10:53 PM 39.9 °F 33.9 °F 34.0 °F 79% 30.27 in 3.0 mi North 9.2 mph - N/A   Haze
11:04 PM 39.9 °F 33.9 °F 34.0 °F 79% 30.26 in 4.0 mi North 9.2 mph - N/A   Haze
11:53 PM 39.9 °F 33.9 °F 34.0 °F 79% 30.26 in 4.0 mi North 9.2 mph - N/A   Haze